This is the latest recevied weather packets stored in our database for station/object AB1AU. If no packets are shown the sender has not sent any weather packets the latest 10 day(s).
| Time | Temp. | Humidity | Pressure | Rain* | Wind** | Luminosity | Snow |
|---|---|---|---|---|---|---|---|
| 1777519990 | 6.67° C | 93% | 1015 hPa | 1.78 mm | - | 0 W/m² | - |
| 1777519686 | 6.67° C | 93% | 1015.1 hPa | 0 mm | - | 0 W/m² | - |
| 1777519383 | 6.67° C | 93% | 1015.3 hPa | 0 mm | - | 0 W/m² | - |
| 1777519080 | 6.67° C | 93% | 1015.2 hPa | 0 mm | - | 0 W/m² | - |
| 1777518776 | 6.67° C | 93% | 1015.3 hPa | 0 mm | - | 0 W/m² | - |
| 1777518472 | 6.67° C | 93% | 1015.5 hPa | 1.27 mm | - | 0 W/m² | - |
| 1777518167 | 6.67° C | 93% | 1015.5 hPa | 0 mm | - | 0 W/m² | - |
| 1777517864 | 6.67° C | 92% | 1015.6 hPa | 0 mm | - | 0 W/m² | - |
| 1777517560 | 6.67° C | 92% | 1015.6 hPa | 0 mm | - | 0 W/m² | - |
| 1777517258 | 6.67° C | 92% | 1015.7 hPa | 1.78 mm | - | 0 W/m² | - |
| 1777516957 | 6.67° C | 92% | 1015.7 hPa | 1.78 mm | - | 0 W/m² | - |
| 1777516653 | 6.67° C | 92% | 1015.8 hPa | 1.27 mm | - | 0 W/m² | - |
| 1777516349 | 6.67° C | 92% | 1016 hPa | 1.27 mm | - | 0 W/m² | - |
| 1777516045 | 6.67° C | 92% | 1015.9 hPa | 0 mm | - | 0 W/m² | - |
| 1777515743 | 6.67° C | 92% | 1016 hPa | 0 mm | - | 0 W/m² | - |
| 1777515439 | 6.67° C | 92% | 1015.8 hPa | 0 mm | - | 0 W/m² | - |
| 1777515136 | 6.67° C | 91% | 1016.1 hPa | 1.78 mm | - | 0 W/m² | - |
| 1777514832 | 6.67° C | 91% | 1016.2 hPa | 0 mm | - | 0 W/m² | - |
| 1777514529 | 6.67° C | 91% | 1016.1 hPa | 0 mm | - | 0 W/m² | - |
| 1777514227 | 6.67° C | 91% | 1016.3 hPa | 0 mm | - | 0 W/m² | - |
| 1777513923 | 6.67° C | 91% | 1016.3 hPa | 0 mm | - | 0 W/m² | - |
| 1777513620 | 6.67° C | 91% | 1016.2 hPa | 1.78 mm | - | 0 W/m² | - |
| 1777513316 | 6.67° C | 90% | 1016.2 hPa | 1.78 mm | - | 0 W/m² | - |
| 1777513013 | 7.22° C | 90% | 1016.4 hPa | 0 mm | - | 0 W/m² | - |
| 1777512709 | 6.67° C | 90% | 1016.2 hPa | 0 mm | - | 0 W/m² | - |
* Rain latest hour (hover to see other rain measurements)
** Current wind speed in m/s (hover to see current wind gust speed)